Location: Huberhof
(49.2050°N, 7.4980°E)
Time: 01:01:36
(UTC+00:00)

CSL-04 Rocket - Pass Details

Date: 29 October 2020
Orbit: 805 x 861 km, 98.9° (Epoch: 26 November)

Event Time Altitude Azimuth Distance (km) Brightness Sun altitude
Exits shadow 18:34:12 - 170° (S) 3,263 6.6 -23.5°
Reaches altitude 10° 18:36:11 10° 172° (S) 2,489 6.0 -23.8°
Maximum altitude 18:41:42 72° 256° (WSW) 902 3.9 -24.7°
Drops below altitude 10° 18:47:13 10° 341° (NNW) 2,481 6.4 -25.6°
Sets 18:49:36 0° 344° (NNW) 3,413 7.2 -26.0°
